Wind_Speed
26 28 30 32 25 8 1 4 3 4 6 2 3 3 4 3 2 3 1 4 8 6 3 5 3 5 5 5 2 2 4 3 1 6 5 4 1 4 4 2 0 4 2 5
27 27 27 30 24 17 6 2 2 1 6 3 1 5 3 5 3 4 3 3 4 3 2 2 4 4 3 3 1 3 3 2 1 1 2 2 4 5 6 2 4 6 1 5
24 27 27 27 21 14 4 2 3 3 3 1 2 2 4 3 2 2 1 3 3 4 4 2 4 5 3 4 0 1 1 2 4 4 1 2 4 6 8 7 3 4 8 8
22 25 28 26 21 12 5 4 1 1 1 4 3 2 2 2 2 1 3 2 3 3 3 3 4 2 5 4 5 2 2 3 3 7 11 10 10 10 10 13 13 5 4 7
20 23 26 27 23 10 8 3 2 2 3 2 6 2 3 4 1 4 2 3 2 6 3 5 3 2 4 3 5 4 4 3 3 5 10 7 10 11 15 17 16 18 17 22
19 20 23 26 24 10 6 3 2 1 1 1 3 3 4 5 4 3 3 6 5 2 5 6 7 7 7 4 2 6 3 1 4 5 6 8 9 15 18 11 8 17 16 15
19 17 20 23 22 15 6 5 3 2 1 1 2 1 1 2 3 3 2 2 3 2 5 7 4 6 6 7 6 3 2 2 0 4 6 3 7 3 2 9 13 11 10 7
18 16 16 19 21 16 8 5 4 3 3 1 4 5 3 4 6 4 3 1 2 4 4 3 3 2 2 5 5 7 6 3 2 1 3 9 7 1 3 4 6 10 13 6
19 16 14 14 17 20 7 8 6 3 2 1 3 3 0 2 2 4 4 2 1 2 2 1 2 2 2 2 3 2 3 4 1 2 3 5 1 3 2 1 5 4 5 6
15 16 14 13 13 16 11 6 10 2 2 2 2 2 2 2 3 3 2 4 3 1 2 2 3 3 3 3 4 5 3 4 8 6 5 8 2 6 3 1 5 1 3 4
12 14 13 13 13 12 12 4 11 5 3 4 4 2 2 1 1 3 1 2 1 1 2 2 3 2 3 1 5 6 8 6 5 4 5 9 7 3 7 4 2 3 4 4
11 12 13 11 11 12 9 1 7 9 3 4 4 8 11 4 3 2 0 2 3 2 2 2 2 3 3 4 4 0 4 7 4 9 6 5 10 7 8 4 4 4 3 5
8 9 11 12 10 11 9 6 9 4 2 4 1 3 2 10 14 4 3 2 4 2 3 3 2 4 2 3 6 4 5 5 4 1 7 13 10 13 10 8 8 7 6 7
9 8 10 11 10 10 11 5 7 3 4 2 3 3 2 2 4 9 6 0 0 0 0 2 3 2 3 3 5 5 5 2 4 8 16 16 19 13 8 9 7 7 5 6
9 9 8 9 12 11 10 7 7 5 1 3 4 3 1 2 3 4 5 5 2 1 1 3 3 3 2 4 4 13 9 15 9 9 8 6 3 3 3 4 3 5 5 6
10 9 9 9 11 11 5 2 3 3 4 1 3 1 2 2 2 4 4 5 3 2 2 3 3 2 1 4 4 6 13 17 14 8 6 2 2 3 2 3 5 5 5 6
10 10 9 8 9 8 3 2 2 4 1 1 4 3 2 2 1 1 1 2 1 2 2 3 3 3 3 3 11 3 5 11 13 12 3 5 3 5 6 6 4 3 4 8
9 11 9 7 8 8 5 5 10 10 4 1 2 4 1 4 1 1 1 2 2 3 3 1 2 1 3 7 9 7 8 11 7 5 6 6 2 1 2 2 2 4 6 4
9 11 6 4 1 2 2 5 3 7 2 2 2 2 2 1 1 2 1 2 3 1 3 3 4 3 8 11 12 12 11 7 5 1 4 6 7 7 7 6 7 7 6 6
7 6 2 1 2 3 4 2 1 1 2 2 3 1 1 2 1 2 1 2 2 3 3 1 3 5 12 16 12 11 11 9 6 3 5 4 6 7 7 8 7 7 6 5
2 3 2 2 1 1 3 1 2 2 3 3 3 2 2 3 2 3 3 2 2 2 2 1 3 4 4 3 6 6 7 5 6 5 6 5 4 4 6 6 6 5 7 6
3 4 2 1 1 0 2 2 2 4 4 2 3 3 3 1 2 1 1 2 0 5 1 1 3 4 6 6 7 6 5 6 7 6 6 5 5 5 5 4 4 5 8 8
4 2 2 1 2 4 5 6 4 3 3 3 2 1 3 1 1 1 0 3 5 1 0 4 5 6 7 8 5 5 4 4 6 6 7 8 7 7 5 4 7 5 4 7
1 2 5 5 5 5 5 4 3 1 3 4 2 1 2 1 2 3 3 3 1 2 4 6 3 4 7 7 4 4 7 5 4 5 5 6 4 6 7 7 6 5 5 6
3 3 6 8 4 1 1 2 2 1 3 4 1 1 2 2 2 3 2 1 4 5 5 3 3 6 6 4 4 5 6 5 5 4 3 3 7 6 9 8 14 11 8 8
3 5 5 2 1 1 1 2 2 3 3 1 1 2 1 5 3 5 8 4 7 5 4 4 3 5 5 4 3 5 4 3 5 5 4 7 8 8 9 10 11 14 7 9
5 6 7 4 2 3 4 5 4 10 4 3 3 6 10 1 3 4 4 6 5 4 4 3 5 6 8 8 6 6 7 5 8 9 9 10 11 9 9 7 16 12 3 12
Wind_Direction
23 22 20 18 18 19 256 281 58 320 181 53 68 20 353 312 98 227 152 8 35 80 107 83 84 88 55 74 114 27 63 335 239 205 93 42 263 235 234 163 211 245 248 275
14 20 21 18 17 17 346 26 116 104 205 89 91 143 101 37 30 19 20 80 43 296 63 112 104 104 99 119 271 20 7 212 294 159 100 153 226 221 229 267 29 236 295 267
14 13 16 20 18 26 33 332 32 8 47 179 5 73 60 122 211 92 51 113 222 219 110 334 150 128 168 140 152 122 301 280 212 213 232 279 221 204 193 181 195 243 228 262
10 13 13 16 19 32 72 16 58 153 1 20 32 37 292 66 32 54 292 109 45 326 142 148 124 139 144 188 160 220 257 253 263 274 273 265 254 240 218 207 221 239 266 297
10 12 15 13 18 47 56 60 352 238 117 265 294 155 25 24 95 335 40 43 349 326 20 4 56 340 211 147 167 235 172 268 346 274 244 226 252 241 235 236 226 238 253 270
11 12 14 20 21 46 63 19 202 189 229 258 286 24 34 25 352 116 30 354 328 309 36 353 337 323 314 310 278 201 192 283 2 273 355 321 289 244 220 224 218 223 239 248
13 13 15 19 27 41 46 17 295 295 152 205 30 124 93 4 36 314 18 303 273 120 299 281 236 257 262 265 242 265 289 179 147 279 324 276 246 95 81 223 239 228 254 254
11 13 16 17 20 26 56 30 352 345 296 125 179 198 242 233 188 210 226 227 56 331 298 296 290 188 224 218 208 221 206 285 281 204 268 276 300 170 178 166 281 225 228 236
4 8 13 15 17 18 36 26 31 307 342 252 44 277 120 287 271 170 192 144 279 279 261 266 259 278 8 166 160 323 269 218 258 298 260 267 293 155 43 46 293 357 158 206
1 3 4 8 13 17 22 358 8 288 260 185 153 235 302 11 329 285 134 157 186 170 248 254 224 245 129 227 223 168 180 215 214 224 258 279 189 149 176 136 230 155 165 198
352 357 1 359 0 10 26 7 7 17 321 285 178 199 179 97 296 301 29 0 305 222 227 205 246 230 217 238 223 177 177 174 193 190 230 262 148 96 181 202 221 188 199 208
343 346 354 356 350 353 6 62 346 336 228 265 263 253 246 220 167 310 162 328 325 292 335 290 318 264 216 225 270 338 231 201 194 188 218 202 196 221 208 164 170 215 229 221
329 335 344 349 341 343 352 328 337 342 256 284 341 256 219 244 243 204 172 194 21 354 58 317 285 262 318 238 234 236 247 225 225 341 248 256 211 230 231 217 200 218 225 238
308 319 329 341 337 330 335 327 301 326 289 271 267 214 198 273 242 218 203 82 151 72 89 258 251 236 207 253 265 252 206 98 211 265 269 276 277 260 229 231 207 212 223 242
292 299 307 327 334 330 326 309 292 251 297 299 293 274 337 282 183 188 198 190 234 222 245 227 239 254 328 261 252 255 200 232 221 240 220 220 290 175 126 147 194 254 248 271
279 279 292 313 328 334 342 203 28 47 173 304 302 46 109 16 121 156 168 189 195 216 210 236 238 135 184 260 257 227 206 227 229 244 220 218 105 152 173 215 241 264 268 267
279 263 268 289 311 319 293 317 343 9 349 281 298 295 74 87 60 60 61 57 190 163 234 228 247 184 176 251 255 244 252 227 242 250 306 301 189 241 218 219 253 289 278 281
288 257 255 275 294 293 291 257 267 250 279 286 270 275 331 181 201 170 21 190 177 220 237 276 225 272 216 251 252 296 282 272 278 264 249 234 157 29 216 213 218 257 263 247
299 230 244 277 223 259 262 309 311 200 191 244 206 245 272 229 35 94 141 288 241 210 243 224 155 234 228 241 256 261 265 258 247 48 335 276 247 249 244 241 244 236 246 244
205 155 206 278 199 271 291 296 145 67 200 201 242 329 293 165 152 237 202 177 255 259 236 96 236 259 271 271 274 283 273 254 199 189 259 256 260 244 241 233 239 236 230 227
165 149 233 261 259 230 204 245 216 151 236 219 222 187 203 215 161 230 191 209 245 261 263 219 266 271 242 272 292 304 319 314 241 239 241 232 215 243 255 270 261 255 246 222
192 166 143 217 240 122 230 206 150 226 236 204 173 197 196 282 8 31 261 244 55 250 159 255 258 261 283 315 305 300 318 338 331 312 293 273 268 255 253 256 266 279 273 259
141 73 42 216 175 231 212 185 213 220 196 182 174 178 172 48 68 270 335 245 236 55 344 236 237 288 313 315 309 319 311 317 305 304 306 303 297 285 242 250 259 272 276 258
120 175 233 206 205 237 204 202 173 203 105 125 169 100 166 156 175 185 225 243 10 270 244 240 252 287 301 313 327 333 330 324 278 272 298 305 309 288 268 238 240 258 256 256
210 208 236 219 227 245 64 56 73 291 125 114 86 349 158 168 241 221 356 256 251 224 238 235 245 296 287 324 336 329 318 324 312 308 301 294 293 283 289 284 272 244 238 243
221 235 243 208 336 247 150 169 193 171 147 62 36 132 191 230 189 190 211 197 223 247 220 234 262 274 293 276 260 261 265 285 283 283 293 299 288 272 277 296 271 265 250 255
223 240 227 220 242 189 180 173 196 157 139 198 166 190 203 28 206 227 210 213 224 214 244 247 250 270 298 302 286 260 255 251 249 246 232 239 259 280 290 282 277 245 264 283
Height
808 804 799 794 791 789 788 783 796 790 790 794 794 804 797 801 796 792 791 788 789 791 788 789 791 796 798 798 800 800 804 805 813 804 795 795 798 801 802 822 809 809 803 801
810 805 801 796 791 789 788 788 788 789 788 801 801 797 800 798 794 795 790 792 791 790 790 796 793 797 799 799 800 806 805 806 822 805 804 799 803 798 799 799 811 816 814 788
812 808 803 798 792 789 791 790 805 794 792 796 793 794 794 797 796 794 791 792 789 789 791 788 796 798 800 800 800 806 806 801 808 817 798 793 797 794 794 803 826 799 789 775
814 810 805 800 795 791 791 794 805 804 801 799 795 792 794 796 797 794 792 792 791 790 791 790 794 793 801 801 803 804 804 808 800 799 794 792 792 791 790 796 794 798 770 771
817 812 807 802 797 794 795 800 804 803 800 800 798 796 799 796 798 800 795 795 795 793 793 797 794 794 794 792 804 803 803 810 800 819 786 785 789 781 778 776 776 780 777 770
820 816 812 806 801 797 801 805 805 805 806 798 798 803 802 802 803 802 801 802 801 796 802 803 802 801 798 797 796 800 802 808 815 810 787 789 792 761 764 764 761 762 771 755
822 819 816 812 807 805 806 808 807 804 801 799 802 801 803 803 804 807 800 801 800 804 801 800 799 801 800 799 798 799 801 804 813 823 802 809 756 748 751 754 752 755 752 750
823 820 818 816 813 809 808 808 809 806 803 800 801 802 801 799 801 804 800 797 801 801 801 800 795 797 796 795 796 799 800 804 818 825 807 775 749 757 756 756 751 744 744 743
825 823 819 817 815 813 811 809 809 809 809 802 801 802 799 801 795 798 798 800 801 802 800 798 796 796 788 795 803 800 800 803 814 803 800 786 750 752 750 749 765 736 733 739
825 824 822 819 816 815 813 813 811 809 808 800 800 802 802 801 803 802 797 798 801 801 801 802 800 799 789 797 788 811 813 812 814 814 807 776 745 751 749 758 752 735 734 735
826 824 822 821 819 816 814 816 815 815 811 803 800 801 801 803 805 804 804 804 804 803 804 798 794 797 790 790 777 784 794 805 807 803 798 790 747 752 754 739 734 733 733 732
825 825 823 820 820 818 816 814 813 814 814 806 801 800 800 801 802 804 801 804 800 798 801 799 794 797 789 786 792 766 782 766 768 769 760 739 739 733 731 731 732 732 732 732
823 823 823 821 819 818 817 816 815 812 811 803 801 797 798 798 799 801 805 799 801 800 804 803 799 799 787 791 783 765 762 756 767 754 730 728 731 728 727 727 729 728 727 729
823 822 822 821 819 817 816 816 815 815 813 811 798 795 795 796 796 797 799 801 802 801 801 803 802 797 782 782 773 765 760 755 755 750 729 726 721 719 721 722 722 724 725 727
821 820 820 819 818 817 814 813 814 814 818 812 802 793 794 794 793 795 797 799 801 803 805 805 801 791 788 781 776 751 747 738 746 730 721 721 717 716 718 720 723 726 727 728
819 818 817 817 817 816 814 813 814 813 814 815 809 797 795 795 794 795 796 797 799 801 800 798 791 787 788 789 771 731 728 724 722 721 716 717 718 720 721 722 723 724 726 726
817 816 815 815 816 816 817 817 816 814 814 815 809 799 799 799 799 798 799 798 798 800 799 795 790 787 789 785 754 721 719 719 718 717 717 719 719 720 718 720 721 721 722 724
814 814 814 814 814 813 813 812 812 814 815 814 813 803 799 799 798 801 799 801 800 798 795 789 789 787 786 768 727 724 720 717 715 715 717 718 718 718 719 719 719 720 721 719
811 812 813 812 812 813 812 812 811 811 815 813 811 806 796 800 798 799 801 801 798 794 792 786 787 781 765 729 724 722 720 718 714 714 714 717 718 717 716 718 718 717 716 718
810 812 814 812 811 811 813 811 812 812 811 811 807 798 801 801 800 799 799 799 794 789 787 787 783 762 734 723 720 716 714 712 711 712 715 716 718 718 715 713 714 714 712 711
811 812 813 812 812 811 810 811 810 809 808 803 799 799 799 797 800 797 794 797 792 788 791 791 780 755 727 718 719 717 713 708 709 709 710 710 710 713 714 712 712 712 711 709
810 811 811 812 811 811 811 806 809 807 799 794 796 797 798 799 798 798 798 797 796 789 791 787 778 740 724 722 717 714 713 713 711 711 709 708 708 708 710 711 712 712 713 713
810 810 811 812 809 807 800 798 798 795 791 794 797 798 795 798 799 799 801 801 791 790 798 781 753 732 723 722 718 714 712 713 714 712 712 711 709 708 708 709 709 709 709 711
810 811 805 804 797 794 786 784 782 784 785 790 791 795 793 793 795 791 799 788 790 796 782 766 745 729 725 720 719 717 713 713 713 712 710 711 711 711 708 706 706 707 707 707
811 810 797 786 783 783 784 786 787 788 786 789 795 796 793 795 794 791 790 792 794 784 764 746 732 727 724 717 716 715 714 711 712 711 709 708 710 711 709 707 709 704 702 703
803 797 786 781 783 780 785 787 788 787 788 790 791 793 794 789 786 787 789 784 776 754 742 730 723 721 717 714 712 713 710 707 709 708 706 707 708 708 706 705 706 706 700 702
791 779 772 772 774 774 776 777 777 780 787 790 790 784 777 783 777 781 770 765 741 729 728 722 719 718 716 713 709 709 707 704 702 701 699 699 702 703 703 703 702 700 695 700